Location: Unspecified
(0.0000°N, 0.0000°E)
Time: 13:11:59
(UTC+00:00)

Hubble Space Telescope - Pass Details

Date: 17 October 2017
Orbit: 537 x 541 km, 28.5° (Epoch: 16 October)

Event Time Altitude Azimuth Distance (km) Brightness Sun altitude
Exits shadow 04:52:33 18° 304° (NW) 1,352 2.3 -13.0°
Maximum altitude 04:55:33 81° 30° (NNE) 545 0.8 -12.3°
Drops below altitude 10° 04:59:42 10° 118° (ESE) 1,789 4.7 -11.3°
Sets 05:01:58 0° 119° (ESE) 2,682 5.9 -10.7°
